Time,TemperatureF,DewpointF,PressureIn,WindDirection,WindDirectionDegrees,WindSpeedMPH,WindSpeedGustMPH,Humidity,HourlyPrecipIn,Conditions,Clouds,dailyrainin,SoftwareType,DateUTC
2013-01-31 00:01:00,35.0,25.5,30.10,South,188,3.0,3.0,68,0.00,,---,0.00,VWS V14.01,2013-01-31 06:01:00,
2013-01-31 00:06:00,35.5,26.0,30.10,SSW,198,1.0,2.0,68,0.00,,---,0.00,VWS V14.01,2013-01-31 06:06:00,
2013-01-31 00:11:00,35.5,25.3,30.10,SSW,197,2.0,2.0,66,0.00,,---,0.00,VWS V14.01,2013-01-31 06:11:00,
2013-01-31 00:16:00,35.6,25.7,30.10,SSW,197,1.0,3.0,67,0.00,,---,0.00,VWS V14.01,2013-01-31 06:16:00,
2013-01-31 00:21:00,35.6,25.7,30.10,SSW,197,1.0,2.0,67,0.00,,---,0.00,VWS V14.01,2013-01-31 06:21:00,
2013-01-31 00:26:00,35.3,25.5,30.10,South,186,5.0,5.0,67,0.00,,---,0.00,VWS V14.01,2013-01-31 06:26:00,
2013-01-31 00:31:00,35.3,25.5,30.10,South,188,1.0,2.0,67,0.00,,---,0.00,VWS V14.01,2013-01-31 06:31:00,
2013-01-31 00:36:00,35.3,25.5,30.10,South,190,2.0,3.0,67,0.00,,---,0.00,VWS V14.01,2013-01-31 06:36:00,
2013-01-31 00:41:00,35.5,25.6,30.09,South,190,1.0,3.0,67,0.00,,---,0.00,VWS V14.01,2013-01-31 06:41:00,
2013-01-31 00:46:00,35.6,25.7,30.09,South,190,2.0,2.0,67,0.00,,---,0.00,VWS V14.01,2013-01-31 06:46:00,
2013-01-31 00:51:00,35.5,25.6,30.09,SSW,193,3.0,3.0,67,0.00,,---,0.00,VWS V14.01,2013-01-31 06:51:00,
2013-01-31 00:56:00,35.3,25.5,30.09,South,191,0.0,1.0,67,0.00,,---,0.00,VWS V14.01,2013-01-31 06:56:00,
2013-01-31 01:01:00,35.2,25.7,30.09,South,191,0.0,1.0,68,0.00,,---,0.00,VWS V14.01,2013-01-31 07:01:00,
2013-01-31 01:06:00,34.7,25.6,30.09,South,191,0.0,0.0,69,0.00,,---,0.00,VWS V14.01,2013-01-31 07:06:00,
2013-01-31 01:11:00,34.3,25.9,30.09,South,191,0.0,1.0,71,0.00,,---,0.00,VWS V14.01,2013-01-31 07:11:00,
2013-01-31 01:16:00,33.5,25.8,30.09,South,191,0.0,0.0,73,0.00,,---,0.00,VWS V14.01,2013-01-31 07:16:00,
2013-01-31 01:21:00,33.1,25.7,30.09,South,191,0.0,0.0,74,0.00,,---,0.00,VWS V14.01,2013-01-31 07:21:00,
2013-01-31 01:26:00,32.5,25.5,30.09,South,191,0.0,0.0,75,0.00,,---,0.00,VWS V14.01,2013-01-31 07:26:00,
2013-01-31 01:31:00,31.9,24.9,30.09,South,191,0.0,0.0,75,0.00,,---,0.00,VWS V14.01,2013-01-31 07:31:00,
2013-01-31 01:36:00,30.7,24.7,30.09,South,191,0.0,0.0,78,0.00,,---,0.00,VWS V14.01,2013-01-31 07:36:00,
2013-01-31 01:41:00,30.1,24.4,30.10,South,191,0.0,1.0,79,0.00,,---,0.00,VWS V14.01,2013-01-31 07:41:00,
2013-01-31 01:46:00,29.5,24.7,30.10,South,191,0.0,0.0,82,0.00,,---,0.00,VWS V14.01,2013-01-31 07:46:00,
2013-01-31 01:51:00,29.3,24.8,30.10,South,179,0.0,2.0,83,0.00,,---,0.00,VWS V14.01,2013-01-31 07:51:00,
2013-01-31 01:56:00,29.3,24.8,30.10,South,179,0.0,0.0,83,0.00,,---,0.00,VWS V14.01,2013-01-31 07:56:00,
2013-01-31 02:01:00,29.1,24.6,30.10,South,179,0.0,0.0,83,0.00,,---,0.00,VWS V14.01,2013-01-31 08:01:00,
2013-01-31 02:06:00,28.8,24.3,30.09,South,179,0.0,0.0,83,0.00,,---,0.00,VWS V14.01,2013-01-31 08:06:00,
2013-01-31 02:11:00,28.7,24.2,30.09,South,179,0.0,0.0,83,0.00,,---,0.00,VWS V14.01,2013-01-31 08:11:00,
2013-01-31 02:16:00,28.4,24.2,30.09,South,179,0.0,0.0,84,0.00,,---,0.00,VWS V14.01,2013-01-31 08:16:00,
2013-01-31 02:21:00,28.1,23.9,30.09,South,179,0.0,0.0,84,0.00,,---,0.00,VWS V14.01,2013-01-31 08:21:00,
2013-01-31 02:26:00,27.8,23.9,30.09,South,179,0.0,0.0,85,0.00,,---,0.00,VWS V14.01,2013-01-31 08:26:00,
2013-01-31 02:31:00,27.6,23.7,30.09,South,179,0.0,0.0,85,0.00,,---,0.00,VWS V14.01,2013-01-31 08:31:00,
2013-01-31 02:36:00,27.3,23.4,30.09,South,179,0.0,0.0,85,0.00,,---,0.00,VWS V14.01,2013-01-31 08:36:00,
2013-01-31 02:41:00,27.0,23.1,30.10,South,179,0.0,0.0,85,0.00,,---,0.00,VWS V14.01,2013-01-31 08:41:00,
2013-01-31 02:46:00,26.9,23.3,30.10,South,179,0.0,0.0,86,0.00,,---,0.00,VWS V14.01,2013-01-31 08:46:00,
2013-01-31 02:51:00,26.6,23.0,30.10,South,179,0.0,0.0,86,0.00,,---,0.00,VWS V14.01,2013-01-31 08:51:00,
2013-01-31 02:56:00,26.4,23.1,30.10,South,179,0.0,0.0,87,0.00,,---,0.00,VWS V14.01,2013-01-31 08:56:00,
2013-01-31 03:01:00,26.3,23.0,30.11,South,179,0.0,0.0,87,0.00,,---,0.00,VWS V14.01,2013-01-31 09:01:00,
2013-01-31 03:06:00,26.1,22.8,30.11,South,179,0.0,0.0,87,0.00,,---,0.00,VWS V14.01,2013-01-31 09:06:00,
2013-01-31 03:11:00,26.1,23.0,30.11,South,179,0.0,0.0,88,0.00,,---,0.00,VWS V14.01,2013-01-31 09:11:00,
2013-01-31 03:16:00,26.0,22.9,30.11,South,179,0.0,0.0,88,0.00,,---,0.00,VWS V14.01,2013-01-31 09:16:00,
2013-01-31 03:21:00,26.0,22.9,30.11,South,179,0.0,0.0,88,0.00,,---,0.00,VWS V14.01,2013-01-31 09:21:00,
2013-01-31 03:26:00,25.8,23.0,30.11,South,179,0.0,0.0,89,0.00,,---,0.00,VWS V14.01,2013-01-31 09:26:00,
2013-01-31 03:31:00,26.0,23.2,30.11,South,179,0.0,0.0,89,0.00,,---,0.00,VWS V14.01,2013-01-31 09:31:00,
2013-01-31 03:36:00,26.1,23.3,30.11,South,179,0.0,0.0,89,0.00,,---,0.00,VWS V14.01,2013-01-31 09:36:00,
2013-01-31 03:41:00,26.1,23.3,30.11,South,179,0.0,0.0,89,0.00,,---,0.00,VWS V14.01,2013-01-31 09:41:00,
2013-01-31 03:46:00,26.3,23.5,30.11,South,179,0.0,2.0,89,0.00,,---,0.00,VWS V14.01,2013-01-31 09:46:00,
2013-01-31 03:51:00,26.4,23.9,30.10,South,179,0.0,0.0,90,0.00,,---,0.00,VWS V14.01,2013-01-31 09:51:00,
2013-01-31 03:56:00,26.6,23.8,30.10,South,179,0.0,0.0,89,0.00,,---,0.00,VWS V14.01,2013-01-31 09:56:00,
2013-01-31 04:01:00,26.7,24.2,30.10,South,179,0.0,0.0,90,0.00,,---,0.00,VWS V14.01,2013-01-31 10:01:00,
2013-01-31 04:06:00,27.6,25.1,30.10,South,180,0.0,0.0,90,0.00,,---,0.00,VWS V14.01,2013-01-31 10:06:00,
2013-01-31 04:11:00,28.5,25.4,30.10,South,180,0.0,0.0,88,0.00,,---,0.00,VWS V14.01,2013-01-31 10:11:00,
2013-01-31 04:16:00,29.1,25.2,30.10,South,180,0.0,0.0,85,0.00,,---,0.00,VWS V14.01,2013-01-31 10:16:00,
2013-01-31 04:21:00,30.0,25.5,30.11,SSE,164,0.0,2.0,83,0.00,,---,0.00,VWS V14.01,2013-01-31 10:21:00,
2013-01-31 04:26:00,30.4,25.6,30.11,SSE,164,1.0,2.0,82,0.00,,---,0.00,VWS V14.01,2013-01-31 10:26:00,
2013-01-31 04:31:00,30.6,25.5,30.11,SSE,164,0.0,2.0,81,0.00,,---,0.00,VWS V14.01,2013-01-31 10:31:00,
2013-01-31 04:36:00,31.2,25.5,30.11,SSE,164,2.0,2.0,79,0.00,,---,0.00,VWS V14.01,2013-01-31 10:36:00,
2013-01-31 04:41:00,31.3,25.2,30.11,SSE,164,0.0,0.0,78,0.00,,---,0.00,VWS V14.01,2013-01-31 10:41:00,
2013-01-31 04:46:00,31.2,25.1,30.11,SSE,164,0.0,0.0,78,0.00,,---,0.00,VWS V14.01,2013-01-31 10:46:00,
2013-01-31 04:51:00,30.7,24.7,30.11,SSE,164,0.0,0.0,78,0.00,,---,0.00,VWS V14.01,2013-01-31 10:51:00,
2013-01-31 04:56:00,30.1,24.4,30.11,SSE,164,0.0,0.0,79,0.00,,---,0.00,VWS V14.01,2013-01-31 10:56:00,
2013-01-31 05:01:00,29.7,24.3,30.11,SSE,164,0.0,0.0,80,0.00,,---,0.00,VWS V14.01,2013-01-31 11:01:00,
2013-01-31 05:06:00,28.8,23.4,30.11,SSE,164,0.0,0.0,80,0.00,,---,0.00,VWS V14.01,2013-01-31 11:06:00,
2013-01-31 05:11:00,28.2,23.1,30.12,SSE,164,0.0,0.0,81,0.00,,---,0.00,VWS V14.01,2013-01-31 11:11:00,
2013-01-31 05:16:00,27.9,23.7,30.12,SSE,164,0.0,0.0,84,0.00,,---,0.00,VWS V14.01,2013-01-31 11:16:00,
2013-01-31 05:21:00,28.1,24.2,30.12,SSE,163,0.0,0.0,85,0.00,,---,0.00,VWS V14.01,2013-01-31 11:21:00,
2013-01-31 05:26:00,28.8,24.9,30.12,South,169,5.0,5.0,85,0.00,,---,0.00,VWS V14.01,2013-01-31 11:26:00,
2013-01-31 05:31:00,29.4,25.2,30.12,South,190,2.0,2.0,84,0.00,,---,0.00,VWS V14.01,2013-01-31 11:31:00,
2013-01-31 05:36:00,30.9,25.2,30.12,South,190,2.0,3.0,79,0.00,,---,0.00,VWS V14.01,2013-01-31 11:36:00,
2013-01-31 05:41:00,31.3,25.2,30.13,South,173,2.0,5.0,78,0.00,,---,0.00,VWS V14.01,2013-01-31 11:41:00,
2013-01-31 05:46:00,31.6,25.5,30.13,South,173,1.0,2.0,78,0.00,,---,0.00,VWS V14.01,2013-01-31 11:46:00,
2013-01-31 05:51:00,31.8,25.4,30.13,South,174,1.0,2.0,77,0.00,,---,0.00,VWS V14.01,2013-01-31 11:51:00,
2013-01-31 05:56:00,31.9,25.5,30.13,South,176,5.0,5.0,77,0.00,,---,0.00,VWS V14.01,2013-01-31 11:56:00,
2013-01-31 06:01:00,32.4,25.4,30.14,South,174,2.0,3.0,75,0.00,,---,0.00,VWS V14.01,2013-01-31 12:01:00,
2013-01-31 06:06:00,32.5,25.5,30.14,South,171,2.0,3.0,75,0.00,,---,0.00,VWS V14.01,2013-01-31 12:06:00,
2013-01-31 06:11:00,32.7,25.7,30.14,South,171,1.0,2.0,75,0.00,,---,0.00,VWS V14.01,2013-01-31 12:11:00,
2013-01-31 06:16:00,32.7,25.7,30.14,South,180,0.0,3.0,75,0.00,,---,0.00,VWS V14.01,2013-01-31 12:16:00,
2013-01-31 06:21:00,32.7,25.3,30.13,South,180,0.0,0.0,74,0.00,,---,0.00,VWS V14.01,2013-01-31 12:21:00,
2013-01-31 06:26:00,32.5,25.1,30.14,South,180,0.0,0.0,74,0.00,,---,0.00,VWS V14.01,2013-01-31 12:26:00,
2013-01-31 06:31:00,32.4,25.4,30.13,South,180,0.0,0.0,75,0.00,,---,0.00,VWS V14.01,2013-01-31 12:31:00,
2013-01-31 06:36:00,32.1,25.1,30.13,South,180,0.0,0.0,75,0.00,,---,0.00,VWS V14.01,2013-01-31 12:36:00,
2013-01-31 06:41:00,31.8,25.1,30.14,South,180,0.0,0.0,76,0.00,,---,0.00,VWS V14.01,2013-01-31 12:41:00,
2013-01-31 06:46:00,31.2,24.8,30.14,South,180,0.0,0.0,77,0.00,,---,0.00,VWS V14.01,2013-01-31 12:46:00,
2013-01-31 06:51:00,30.6,24.6,30.14,South,180,0.0,0.0,78,0.00,,---,0.00,VWS V14.01,2013-01-31 12:51:00,
2013-01-31 06:56:00,30.1,24.7,30.14,South,180,0.0,0.0,80,0.00,,---,0.00,VWS V14.01,2013-01-31 12:56:00,
2013-01-31 07:01:00,29.5,24.1,30.14,South,180,0.0,0.0,80,0.00,,---,0.00,VWS V14.01,2013-01-31 13:01:00,
2013-01-31 07:06:00,29.3,23.9,30.14,South,180,0.0,0.0,80,0.00,,---,0.00,VWS V14.01,2013-01-31 13:06:00,
2013-01-31 07:11:00,29.0,23.9,30.14,South,187,0.0,0.0,81,0.00,,---,0.00,VWS V14.01,2013-01-31 13:11:00,
2013-01-31 07:16:00,28.8,24.0,30.15,South,187,0.0,0.0,82,0.00,,---,0.00,VWS V14.01,2013-01-31 13:16:00,
2013-01-31 07:21:00,29.1,24.3,30.15,South,187,0.0,0.0,82,0.00,,---,0.00,VWS V14.01,2013-01-31 13:21:00,
2013-01-31 07:26:00,29.4,24.3,30.15,South,187,0.0,0.0,81,0.00,,---,0.00,VWS V14.01,2013-01-31 13:26:00,
2013-01-31 07:31:00,29.4,24.0,30.15,South,187,0.0,0.0,80,0.00,,---,0.00,VWS V14.01,2013-01-31 13:31:00,
2013-01-31 07:36:00,29.4,24.3,30.15,South,188,0.0,1.0,81,0.00,,---,0.00,VWS V14.01,2013-01-31 13:36:00,
2013-01-31 07:41:00,29.5,24.1,30.15,South,188,0.0,0.0,80,0.00,,---,0.00,VWS V14.01,2013-01-31 13:41:00,
2013-01-31 07:46:00,29.4,24.0,30.15,South,188,0.0,0.0,80,0.00,,---,0.00,VWS V14.01,2013-01-31 13:46:00,
2013-01-31 07:51:00,29.5,24.7,30.15,South,188,0.0,0.0,82,0.00,,---,0.00,VWS V14.01,2013-01-31 13:51:00,
2013-01-31 07:56:00,30.1,25.3,30.15,South,188,0.0,1.0,82,0.00,,---,0.00,VWS V14.01,2013-01-31 13:56:00,
2013-01-31 08:01:00,31.0,25.9,30.16,South,188,0.0,1.0,81,0.00,,---,0.00,VWS V14.01,2013-01-31 14:01:00,
2013-01-31 08:06:00,31.9,26.4,30.16,South,188,0.0,0.0,80,0.00,,---,0.00,VWS V14.01,2013-01-31 14:06:00,
2013-01-31 08:11:00,32.8,27.3,30.16,South,188,1.0,1.0,80,0.00,,---,0.00,VWS V14.01,2013-01-31 14:11:00,
2013-01-31 08:16:00,33.2,27.4,30.16,South,188,0.0,0.0,79,0.00,,---,0.00,VWS V14.01,2013-01-31 14:16:00,
2013-01-31 08:21:00,33.8,28.0,30.16,South,188,0.0,0.0,79,0.00,,---,0.00,VWS V14.01,2013-01-31 14:21:00,
2013-01-31 08:26:00,34.9,29.1,30.17,South,169,1.0,3.0,79,0.00,,---,0.00,VWS V14.01,2013-01-31 14:26:00,
2013-01-31 08:31:00,35.8,28.0,30.17,South,171,3.0,3.0,73,0.00,,---,0.00,VWS V14.01,2013-01-31 14:31:00,
2013-01-31 08:36:00,36.9,29.1,30.17,West,260,3.0,6.0,73,0.00,,---,0.00,VWS V14.01,2013-01-31 14:36:00,
2013-01-31 08:41:00,37.5,26.5,30.18,West,260,2.0,2.0,64,0.00,,---,0.00,VWS V14.01,2013-01-31 14:41:00,
2013-01-31 08:46:00,38.5,26.2,30.18,West,262,1.0,3.0,61,0.00,,---,0.00,VWS V14.01,2013-01-31 14:46:00,
2013-01-31 08:51:00,38.9,26.6,30.18,SW,228,2.0,2.0,61,0.00,,---,0.00,VWS V14.01,2013-01-31 14:51:00,
2013-01-31 08:56:00,39.5,27.2,30.18,SW,225,1.0,2.0,61,0.00,,---,0.00,VWS V14.01,2013-01-31 14:56:00,
2013-01-31 09:01:00,39.8,27.9,30.18,WSW,238,2.0,6.0,62,0.00,,---,0.00,VWS V14.01,2013-01-31 15:01:00,
2013-01-31 09:06:00,40.1,26.5,30.18,West,270,1.0,1.0,58,0.00,,---,0.00,VWS V14.01,2013-01-31 15:06:00,
2013-01-31 09:11:00,40.5,28.1,30.18,SSW,194,2.0,3.0,61,0.00,,---,0.00,VWS V14.01,2013-01-31 15:11:00,
2013-01-31 09:16:00,40.9,27.7,30.18,WNW,287,1.0,2.0,59,0.00,,---,0.00,VWS V14.01,2013-01-31 15:16:00,
2013-01-31 09:21:00,41.3,28.1,30.18,WSW,258,1.0,6.0,59,0.00,,---,0.00,VWS V14.01,2013-01-31 15:21:00,
2013-01-31 09:26:00,41.6,26.2,30.18,West,262,7.0,7.0,54,0.00,,---,0.00,VWS V14.01,2013-01-31 15:26:00,
2013-01-31 09:31:00,42.1,27.1,30.18,SSE,164,6.0,6.0,55,0.00,,---,0.00,VWS V14.01,2013-01-31 15:31:00,
2013-01-31 09:36:00,42.8,26.9,30.17,NW,306,2.0,5.0,53,0.00,,---,0.00,VWS V14.01,2013-01-31 15:36:00,
2013-01-31 09:41:00,43.1,27.6,30.17,West,262,1.0,3.0,54,0.00,,---,0.00,VWS V14.01,2013-01-31 15:41:00,
2013-01-31 09:46:00,43.9,27.4,30.17,SSW,205,1.0,5.0,52,0.00,,---,0.00,VWS V14.01,2013-01-31 15:46:00,
2013-01-31 09:51:00,44.5,28.0,30.17,WSW,255,5.0,5.0,52,0.00,,---,0.00,VWS V14.01,2013-01-31 15:51:00,
2013-01-31 09:56:00,44.9,27.4,30.17,WSW,258,5.0,5.0,50,0.00,,---,0.00,VWS V14.01,2013-01-31 15:56:00,
2013-01-31 10:01:00,45.4,28.4,30.18,WNW,284,2.0,2.0,51,0.00,,---,0.00,VWS V14.01,2013-01-31 16:01:00,
2013-01-31 10:06:00,46.1,29.0,30.18,WSW,253,2.0,3.0,51,0.00,,---,0.00,VWS V14.01,2013-01-31 16:06:00,
2013-01-31 10:11:00,46.7,29.1,30.18,WNW,299,2.0,2.0,50,0.00,,---,0.00,VWS V14.01,2013-01-31 16:11:00,
2013-01-31 10:16:00,47.4,28.7,30.18,West,266,3.0,3.0,48,0.00,,---,0.00,VWS V14.01,2013-01-31 16:16:00,
2013-01-31 10:21:00,47.9,28.1,30.18,South,181,3.0,7.0,46,0.00,,---,0.00,VWS V14.01,2013-01-31 16:21:00,
2013-01-31 10:26:00,48.6,30.3,30.18,WSW,249,1.0,5.0,49,0.00,,---,0.00,VWS V14.01,2013-01-31 16:26:00,
2013-01-31 10:31:00,49.1,28.1,30.18,West,279,3.0,6.0,44,0.00,,---,0.00,VWS V14.01,2013-01-31 16:31:00,
2013-01-31 10:36:00,49.4,27.3,30.18,SSW,204,1.0,2.0,42,0.00,,---,0.00,VWS V14.01,2013-01-31 16:36:00,
2013-01-31 10:41:00,49.8,28.2,30.18,SSE,155,3.0,7.0,43,0.00,,---,0.00,VWS V14.01,2013-01-31 16:41:00,
2013-01-31 10:46:00,50.2,29.1,30.18,SSE,160,3.0,5.0,44,0.00,,---,0.00,VWS V14.01,2013-01-31 16:46:00,
2013-01-31 10:51:00,50.4,28.2,30.18,SSE,164,1.0,2.0,42,0.00,,---,0.00,VWS V14.01,2013-01-31 16:51:00,
2013-01-31 10:56:00,50.5,28.3,30.18,South,183,3.0,3.0,42,0.00,,---,0.00,VWS V14.01,2013-01-31 16:56:00,
2013-01-31 11:01:00,51.3,29.6,30.18,WSW,258,2.0,6.0,43,0.00,,---,0.00,VWS V14.01,2013-01-31 17:01:00,
2013-01-31 11:06:00,51.9,30.7,30.18,West,262,3.0,3.0,44,0.00,,---,0.00,VWS V14.01,2013-01-31 17:06:00,
2013-01-31 11:11:00,52.8,29.2,30.17,SE,139,5.0,6.0,40,0.00,,---,0.00,VWS V14.01,2013-01-31 17:11:00,
2013-01-31 11:16:00,53.2,30.1,30.18,SE,135,2.0,5.0,41,0.00,,---,0.00,VWS V14.01,2013-01-31 17:16:00,
2013-01-31 11:21:00,53.6,31.1,30.18,SSW,210,3.0,7.0,42,0.00,,---,0.00,VWS V14.01,2013-01-31 17:21:00,
2013-01-31 11:26:00,53.9,30.8,30.18,SE,139,5.0,8.0,41,0.00,,---,0.00,VWS V14.01,2013-01-31 17:26:00,
2013-01-31 11:31:00,54.4,30.0,30.18,SSW,193,3.0,3.0,39,0.00,,---,0.00,VWS V14.01,2013-01-31 17:31:00,
2013-01-31 11:36:00,54.8,30.3,30.18,SSW,204,6.0,6.0,39,0.00,,---,0.00,VWS V14.01,2013-01-31 17:36:00,
2013-01-31 11:41:00,55.1,28.0,30.18,SW,225,5.0,7.0,35,0.00,,---,0.00,VWS V14.01,2013-01-31 17:41:00,
2013-01-31 11:46:00,55.3,28.1,30.18,SSW,207,3.0,5.0,35,0.00,,---,0.00,VWS V14.01,2013-01-31 17:46:00,
2013-01-31 11:51:00,55.7,29.9,30.18,South,170,8.0,8.0,37,0.00,,---,0.00,VWS V14.01,2013-01-31 17:51:00,
2013-01-31 11:56:00,55.9,30.0,30.17,SSW,198,8.0,10.0,37,0.00,,---,0.00,VWS V14.01,2013-01-31 17:56:00,
2013-01-31 12:01:00,56.3,29.7,30.17,SSE,164,8.0,12.0,36,0.00,,---,0.00,VWS V14.01,2013-01-31 18:01:00,
2013-01-31 12:06:00,56.6,30.0,30.17,SSW,200,7.0,11.0,36,0.00,,---,0.00,VWS V14.01,2013-01-31 18:06:00,
2013-01-31 12:11:00,56.9,29.5,30.16,SW,217,7.0,8.0,35,0.00,,---,0.00,VWS V14.01,2013-01-31 18:11:00,
2013-01-31 12:16:00,57.0,29.6,30.16,SSW,195,5.0,11.0,35,0.00,,---,0.00,VWS V14.01,2013-01-31 18:16:00,
2013-01-31 12:21:00,57.0,26.7,30.17,South,187,3.0,12.0,31,0.00,,---,0.00,VWS V14.01,2013-01-31 18:21:00,
2013-01-31 12:26:00,57.6,27.2,30.16,SSW,193,3.0,5.0,31,0.00,,---,0.00,VWS V14.01,2013-01-31 18:26:00,
2013-01-31 12:31:00,58.1,26.0,30.16,South,173,8.0,8.0,29,0.00,,---,0.00,VWS V14.01,2013-01-31 18:31:00,
2013-01-31 12:36:00,58.6,26.5,30.15,SSW,203,6.0,7.0,29,0.00,,---,0.00,VWS V14.01,2013-01-31 18:36:00,
2013-01-31 12:41:00,58.7,25.7,30.15,SSW,194,3.0,10.0,28,0.00,,---,0.00,VWS V14.01,2013-01-31 18:41:00,
2013-01-31 12:46:00,59.3,26.2,30.14,South,171,7.0,10.0,28,0.00,,---,0.00,VWS V14.01,2013-01-31 18:46:00,
2013-01-31 12:51:00,59.6,25.6,30.14,SSE,153,10.0,10.0,27,0.00,,---,0.00,VWS V14.01,2013-01-31 18:51:00,
2013-01-31 12:56:00,59.9,25.9,30.14,SSE,163,11.0,12.0,27,0.00,,---,0.00,VWS V14.01,2013-01-31 18:56:00,
2013-01-31 13:01:00,59.9,25.9,30.14,SE,145,6.0,12.0,27,0.00,,---,0.00,VWS V14.01,2013-01-31 19:01:00,
2013-01-31 13:06:00,60.1,26.0,30.13,SE,145,7.0,11.0,27,0.00,,---,0.00,VWS V14.01,2013-01-31 19:06:00,
2013-01-31 13:11:00,59.9,25.0,30.13,SSE,153,5.0,7.0,26,0.00,,---,0.00,VWS V14.01,2013-01-31 19:11:00,
2013-01-31 13:16:00,60.2,27.0,30.13,SSE,164,7.0,8.0,28,0.00,,---,0.00,VWS V14.01,2013-01-31 19:16:00,
2013-01-31 13:21:00,60.7,24.7,30.13,SSE,150,11.0,12.0,25,0.00,,---,0.00,VWS V14.01,2013-01-31 19:21:00,
2013-01-31 13:26:00,60.5,24.5,30.12,SW,225,7.0,13.0,25,0.00,,---,0.00,VWS V14.01,2013-01-31 19:26:00,
2013-01-31 13:31:00,60.5,25.5,30.12,SSW,193,10.0,13.0,26,0.00,,---,0.00,VWS V14.01,2013-01-31 19:31:00,
2013-01-31 13:36:00,61.3,26.1,30.12,SW,221,7.0,10.0,26,0.00,,---,0.00,VWS V14.01,2013-01-31 19:36:00,
2013-01-31 13:41:00,61.3,26.1,30.12,SE,142,12.0,12.0,26,0.00,,---,0.00,VWS V14.01,2013-01-31 19:41:00,
2013-01-31 13:46:00,61.8,26.6,30.11,South,176,2.0,2.0,26,0.00,,---,0.00,VWS V14.01,2013-01-31 19:46:00,
2013-01-31 13:51:00,62.3,26.1,30.11,SSE,160,8.0,8.0,25,0.00,,---,0.00,VWS V14.01,2013-01-31 19:51:00,
2013-01-31 13:56:00,62.4,23.1,30.11,SSE,164,7.0,7.0,22,0.00,,---,0.00,VWS V14.01,2013-01-31 19:56:00,
2013-01-31 14:01:00,62.1,23.9,30.11,SSE,159,13.0,13.0,23,0.00,,---,0.00,VWS V14.01,2013-01-31 20:01:00,
2013-01-31 14:06:00,62.4,22.0,30.11,South,180,7.0,11.0,21,0.00,,---,0.00,VWS V14.01,2013-01-31 20:06:00,
2013-01-31 14:11:00,62.4,23.1,30.11,SSW,208,5.0,8.0,22,0.00,,---,0.00,VWS V14.01,2013-01-31 20:11:00,
2013-01-31 14:16:00,62.7,23.3,30.11,WSW,251,8.0,13.0,22,0.00,,---,0.00,VWS V14.01,2013-01-31 20:16:00,
2013-01-31 14:21:00,62.4,24.1,30.11,SW,229,5.0,14.0,23,0.00,,---,0.00,VWS V14.01,2013-01-31 20:21:00,
2013-01-31 14:26:00,62.7,23.3,30.10,SSW,203,3.0,11.0,22,0.00,,---,0.00,VWS V14.01,2013-01-31 20:26:00,
2013-01-31 14:31:00,62.9,23.5,30.10,SSW,197,5.0,14.0,22,0.00,,---,0.00,VWS V14.01,2013-01-31 20:31:00,
2013-01-31 14:36:00,62.7,23.3,30.10,SSW,195,5.0,7.0,22,0.00,,---,0.00,VWS V14.01,2013-01-31 20:36:00,
2013-01-31 14:41:00,63.1,22.6,30.10,SSE,150,8.0,10.0,21,0.00,,---,0.00,VWS V14.01,2013-01-31 20:41:00,
2013-01-31 14:46:00,63.1,21.4,30.10,SSW,204,5.0,10.0,20,0.00,,---,0.00,VWS V14.01,2013-01-31 20:46:00,
2013-01-31 14:51:00,63.2,23.8,30.10,SSE,159,6.0,6.0,22,0.00,,---,0.00,VWS V14.01,2013-01-31 20:51:00,
2013-01-31 14:56:00,63.1,22.6,30.10,South,188,5.0,11.0,21,0.00,,---,0.00,VWS V14.01,2013-01-31 20:56:00,
2013-01-31 15:01:00,63.2,22.6,30.09,South,190,6.0,8.0,21,0.00,,---,0.00,VWS V14.01,2013-01-31 21:01:00,
2013-01-31 15:06:00,63.5,22.9,30.09,SW,231,7.0,7.0,21,0.00,,---,0.00,VWS V14.01,2013-01-31 21:06:00,
2013-01-31 15:11:00,63.5,21.7,30.09,SW,217,8.0,8.0,20,0.00,,---,0.00,VWS V14.01,2013-01-31 21:11:00,
2013-01-31 15:16:00,63.5,22.9,30.09,SSW,193,7.0,18.0,21,0.00,,---,0.00,VWS V14.01,2013-01-31 21:16:00,
2013-01-31 15:21:00,63.5,22.9,30.09,South,169,5.0,8.0,21,0.00,,---,0.00,VWS V14.01,2013-01-31 21:21:00,
2013-01-31 15:26:00,63.7,21.9,30.09,South,187,8.0,14.0,20,0.00,,---,0.00,VWS V14.01,2013-01-31 21:26:00,
2013-01-31 15:31:00,63.5,21.7,30.09,SE,139,11.0,11.0,20,0.00,,---,0.00,VWS V14.01,2013-01-31 21:31:00,
2013-01-31 15:36:00,63.5,21.7,30.09,SSW,205,8.0,13.0,20,0.00,,---,0.00,VWS V14.01,2013-01-31 21:36:00,
2013-01-31 15:41:00,63.9,22.1,30.09,South,183,2.0,5.0,20,0.00,,---,0.00,VWS V14.01,2013-01-31 21:41:00,
2013-01-31 15:46:00,64.0,20.9,30.08,SSE,160,10.0,11.0,19,0.00,,---,0.00,VWS V14.01,2013-01-31 21:46:00,
2013-01-31 15:51:00,63.9,20.9,30.08,SSW,195,6.0,11.0,19,0.00,,---,0.00,VWS V14.01,2013-01-31 21:51:00,
2013-01-31 15:56:00,63.9,20.9,30.08,South,188,2.0,11.0,19,0.00,,---,0.00,VWS V14.01,2013-01-31 21:56:00,
2013-01-31 16:01:00,63.9,20.9,30.08,South,181,5.0,11.0,19,0.00,,---,0.00,VWS V14.01,2013-01-31 22:01:00,
2013-01-31 16:06:00,64.0,20.9,30.08,South,171,7.0,17.0,19,0.00,,---,0.00,VWS V14.01,2013-01-31 22:06:00,
2013-01-31 16:11:00,64.0,20.9,30.08,SSW,195,13.0,13.0,19,0.00,,---,0.00,VWS V14.01,2013-01-31 22:11:00,
2013-01-31 16:16:00,63.9,23.2,30.08,SSW,204,7.0,8.0,21,0.00,,---,0.00,VWS V14.01,2013-01-31 22:16:00,
2013-01-31 16:21:00,63.9,22.1,30.08,South,169,6.0,7.0,20,0.00,,---,0.00,VWS V14.01,2013-01-31 22:21:00,
2013-01-31 16:27:00,63.9,22.1,30.08,South,180,7.0,8.0,20,0.00,,---,0.00,VWS V14.01,2013-01-31 22:27:00,
2013-01-31 16:32:00,63.9,22.1,30.07,SSE,164,6.0,7.0,20,0.00,,---,0.00,VWS V14.01,2013-01-31 22:32:00,
2013-01-31 16:37:00,63.9,22.1,30.07,South,181,7.0,11.0,20,0.00,,---,0.00,VWS V14.01,2013-01-31 22:37:00,
2013-01-31 16:42:00,63.7,23.1,30.08,South,190,6.0,12.0,21,0.00,,---,0.00,VWS V14.01,2013-01-31 22:42:00,
2013-01-31 16:47:00,63.5,20.5,30.08,South,187,5.0,10.0,19,0.00,,---,0.00,VWS V14.01,2013-01-31 22:47:00,
2013-01-31 16:52:00,63.5,21.7,30.07,South,180,8.0,8.0,20,0.00,,---,0.00,VWS V14.01,2013-01-31 22:52:00,
2013-01-31 16:57:00,63.4,22.8,30.07,South,169,3.0,6.0,21,0.00,,---,0.00,VWS V14.01,2013-01-31 22:57:00,
2013-01-31 17:02:00,63.2,22.6,30.08,South,180,3.0,7.0,21,0.00,,---,0.00,VWS V14.01,2013-01-31 23:02:00,
2013-01-31 17:07:00,62.7,21.1,30.08,SSE,162,7.0,11.0,20,0.00,,---,0.00,VWS V14.01,2013-01-31 23:07:00,
2013-01-31 17:12:00,62.6,22.1,30.08,South,188,3.0,7.0,21,0.00,,---,0.00,VWS V14.01,2013-01-31 23:12:00,
2013-01-31 17:17:00,62.1,22.8,30.08,South,176,10.0,10.0,22,0.00,,---,0.00,VWS V14.01,2013-01-31 23:17:00,
2013-01-31 17:22:00,61.8,20.3,30.08,South,170,6.0,6.0,20,0.00,,---,0.00,VWS V14.01,2013-01-31 23:22:00,
2013-01-31 17:27:00,61.3,22.2,30.09,SSE,160,2.0,6.0,22,0.00,,---,0.00,VWS V14.01,2013-01-31 23:27:00,
2013-01-31 17:32:00,61.2,22.1,30.09,SSW,197,2.0,2.0,22,0.00,,---,0.00,VWS V14.01,2013-01-31 23:32:00,
2013-01-31 17:37:00,60.4,22.5,30.10,South,190,2.0,3.0,23,0.00,,---,0.00,VWS V14.01,2013-01-31 23:37:00,
2013-01-31 17:42:00,59.9,24.0,30.10,South,190,1.0,2.0,25,0.00,,---,0.00,VWS V14.01,2013-01-31 23:42:00,
2013-01-31 17:47:00,59.3,23.5,30.11,South,190,2.0,2.0,25,0.00,,---,0.00,VWS V14.01,2013-01-31 23:47:00,
2013-01-31 17:52:00,58.6,23.8,30.11,South,190,2.0,2.0,26,0.00,,---,0.00,VWS V14.01,2013-01-31 23:52:00,
2013-01-31 17:57:00,57.8,24.9,30.11,South,190,0.0,1.0,28,0.00,,---,0.00,VWS V14.01,2013-01-31 23:57:00,
2013-01-31 18:02:00,57.0,24.2,30.12,South,190,1.0,1.0,28,0.00,,---,0.00,VWS V14.01,2013-02-01 00:02:00,
2013-01-31 18:07:00,55.4,22.9,30.12,South,190,0.0,1.0,28,0.00,,---,0.00,VWS V14.01,2013-02-01 00:07:00,
2013-01-31 18:12:00,53.9,21.6,30.12,South,190,0.0,0.0,28,0.00,,---,0.00,VWS V14.01,2013-02-01 00:12:00,
2013-01-31 18:17:00,52.6,20.4,30.13,South,190,0.0,0.0,28,0.00,,---,0.00,VWS V14.01,2013-02-01 00:17:00,
2013-01-31 18:22:00,51.7,19.7,30.13,South,190,1.0,1.0,28,0.00,,---,0.00,VWS V14.01,2013-02-01 00:22:00,
2013-01-31 18:27:00,50.2,30.2,30.14,South,190,0.0,1.0,46,0.00,,---,0.00,VWS V14.01,2013-02-01 00:27:00,
2013-01-31 18:32:00,49.4,30.5,30.14,South,190,0.0,0.0,48,0.00,,---,0.00,VWS V14.01,2013-02-01 00:32:00,
2013-01-31 18:37:00,48.0,30.8,30.14,South,190,0.0,0.0,51,0.00,,---,0.00,VWS V14.01,2013-02-01 00:37:00,
2013-01-31 18:42:00,47.1,29.9,30.14,South,190,0.0,0.0,51,0.00,,---,0.00,VWS V14.01,2013-02-01 00:42:00,
2013-01-31 18:47:00,46.1,30.9,30.14,South,190,0.0,0.0,55,0.00,,---,0.00,VWS V14.01,2013-02-01 00:47:00,
2013-01-31 18:52:00,45.4,30.2,30.15,South,190,0.0,0.0,55,0.00,,---,0.00,VWS V14.01,2013-02-01 00:52:00,
2013-01-31 18:57:00,44.8,29.2,30.15,South,190,0.0,0.0,54,0.00,,---,0.00,VWS V14.01,2013-02-01 00:57:00,
2013-01-31 19:02:00,43.8,28.2,30.16,South,190,0.0,0.0,54,0.00,,---,0.00,VWS V14.01,2013-02-01 01:02:00,
2013-01-31 19:07:00,43.3,29.5,30.16,South,190,0.0,0.0,58,0.00,,---,0.00,VWS V14.01,2013-02-01 01:07:00,
2013-01-31 19:12:00,42.5,29.2,30.16,South,190,0.0,0.0,59,0.00,,---,0.00,VWS V14.01,2013-02-01 01:12:00,
2013-01-31 19:17:00,41.9,28.6,30.16,South,190,0.0,0.0,59,0.00,,---,0.00,VWS V14.01,2013-02-01 01:17:00,
2013-01-31 19:22:00,41.5,32.5,30.16,South,190,0.0,0.0,70,0.00,,---,0.00,VWS V14.01,2013-02-01 01:22:00,
2013-01-31 19:27:00,41.2,31.5,30.16,South,190,0.0,0.0,68,0.00,,---,0.00,VWS V14.01,2013-02-01 01:27:00,
2013-01-31 19:32:00,40.9,31.9,30.17,South,190,0.0,1.0,70,0.00,,---,0.00,VWS V14.01,2013-02-01 01:32:00,
2013-01-31 19:37:00,40.5,31.5,30.17,South,190,2.0,2.0,70,0.00,,---,0.00,VWS V14.01,2013-02-01 01:37:00,
2013-01-31 19:42:00,40.2,31.2,30.17,South,190,0.0,0.0,70,0.00,,---,0.00,VWS V14.01,2013-02-01 01:42:00,
2013-01-31 19:47:00,39.6,30.6,30.16,South,176,2.0,5.0,70,0.00,,---,0.00,VWS V14.01,2013-02-01 01:47:00,
2013-01-31 19:52:00,39.8,29.4,30.17,South,170,2.0,2.0,66,0.00,,---,0.00,VWS V14.01,2013-02-01 01:52:00,
2013-01-31 19:57:00,41.2,28.0,30.17,South,171,0.0,2.0,59,0.00,,---,0.00,VWS V14.01,2013-02-01 01:57:00,
2013-01-31 20:02:00,41.9,30.2,30.17,South,171,0.0,1.0,63,0.00,,---,0.00,VWS V14.01,2013-02-01 02:02:00,
2013-01-31 20:07:00,43.3,31.6,30.18,NW,324,5.0,6.0,63,0.00,,---,0.00,VWS V14.01,2013-02-01 02:07:00,
2013-01-31 20:12:00,47.4,24.3,30.19,WNW,286,2.0,7.0,40,0.00,,---,0.00,VWS V14.01,2013-02-01 02:12:00,
2013-01-31 20:17:00,50.7,25.4,30.20,NW,318,3.0,10.0,37,0.00,,---,0.00,VWS V14.01,2013-02-01 02:17:00,
2013-01-31 20:22:00,51.7,27.6,30.20,NNW,337,2.0,5.0,39,0.00,,---,0.00,VWS V14.01,2013-02-01 02:22:00,
2013-01-31 20:27:00,51.6,28.7,30.21,WNW,289,1.0,2.0,41,0.00,,---,0.00,VWS V14.01,2013-02-01 02:27:00,
2013-01-31 20:32:00,50.7,29.0,30.21,NNW,328,1.0,5.0,43,0.00,,---,0.00,VWS V14.01,2013-02-01 02:32:00,
2013-01-31 20:37:00,50.2,28.6,30.22,NW,306,2.0,7.0,43,0.00,,---,0.00,VWS V14.01,2013-02-01 02:37:00,
2013-01-31 20:42:00,49.9,28.3,30.22,NNE,12,3.0,3.0,43,0.00,,---,0.00,VWS V14.01,2013-02-01 02:42:00,
2013-01-31 20:47:00,49.4,30.0,30.23,North,11,1.0,3.0,47,0.00,,---,0.00,VWS V14.01,2013-02-01 02:47:00,
2013-01-31 20:52:00,49.1,30.3,30.23,North,11,2.0,2.0,48,0.00,,---,0.00,VWS V14.01,2013-02-01 02:52:00,
2013-01-31 20:57:00,48.8,30.0,30.24,North,9,3.0,3.0,48,0.00,,---,0.00,VWS V14.01,2013-02-01 02:57:00,
2013-01-31 21:02:00,48.2,29.5,30.24,North,8,3.0,3.0,48,0.00,,---,0.00,VWS V14.01,2013-02-01 03:02:00,
2013-01-31 21:07:00,47.9,30.2,30.24,North,11,7.0,7.0,50,0.00,,---,0.00,VWS V14.01,2013-02-01 03:07:00,
2013-01-31 21:12:00,47.7,30.5,30.24,NNE,12,3.0,3.0,51,0.00,,---,0.00,VWS V14.01,2013-02-01 03:12:00,
2013-01-31 21:17:00,47.3,30.6,30.24,NNE,16,8.0,8.0,52,0.00,,---,0.00,VWS V14.01,2013-02-01 03:17:00,
2013-01-31 21:22:00,47.3,30.1,30.25,NNW,345,5.0,5.0,51,0.00,,---,0.00,VWS V14.01,2013-02-01 03:22:00,
2013-01-31 21:27:00,47.0,29.8,30.25,NNE,18,2.0,7.0,51,0.00,,---,0.00,VWS V14.01,2013-02-01 03:27:00,
2013-01-31 21:32:00,46.8,30.1,30.26,NNW,348,2.0,2.0,52,0.00,,---,0.00,VWS V14.01,2013-02-01 03:32:00,
2013-01-31 21:37:00,46.5,29.8,30.26,NNW,348,1.0,3.0,52,0.00,,---,0.00,VWS V14.01,2013-02-01 03:37:00,
2013-01-31 21:42:00,46.2,29.6,30.26,North,3,2.0,2.0,52,0.00,,---,0.00,VWS V14.01,2013-02-01 03:42:00,
2013-01-31 21:47:00,46.0,30.3,30.27,North,3,3.0,3.0,54,0.00,,---,0.00,VWS V14.01,2013-02-01 03:47:00,
2013-01-31 21:52:00,45.8,30.6,30.27,North,3,2.0,3.0,55,0.00,,---,0.00,VWS V14.01,2013-02-01 03:52:00,
2013-01-31 21:57:00,45.2,30.0,30.27,North,3,2.0,5.0,55,0.00,,---,0.00,VWS V14.01,2013-02-01 03:57:00,
2013-01-31 22:02:00,45.1,29.9,30.27,North,3,2.0,2.0,55,0.00,,---,0.00,VWS V14.01,2013-02-01 04:02:00,
2013-01-31 22:06:00,44.8,30.1,30.27,North,11,3.0,6.0,56,0.00,,---,0.00,VWS V14.01,2013-02-01 04:06:00,
2013-01-31 22:12:00,44.5,29.8,30.27,North,9,3.0,5.0,56,0.00,,---,0.00,VWS V14.01,2013-02-01 04:12:00,
2013-01-31 22:16:00,44.5,29.8,30.28,NNE,23,3.0,5.0,56,0.00,,---,0.00,VWS V14.01,2013-02-01 04:16:00,
2013-01-31 22:22:00,44.3,29.6,30.28,North,9,3.0,10.0,56,0.00,,---,0.00,VWS V14.01,2013-02-01 04:22:00,
2013-01-31 22:26:00,44.3,29.6,30.28,North,9,2.0,5.0,56,0.00,,---,0.00,VWS V14.01,2013-02-01 04:26:00,
2013-01-31 22:31:00,43.9,29.2,30.29,North,9,2.0,2.0,56,0.00,,---,0.00,VWS V14.01,2013-02-01 04:31:00,
2013-01-31 22:36:00,43.6,29.8,30.29,North,9,1.0,2.0,58,0.00,,---,0.00,VWS V14.01,2013-02-01 04:36:00,
2013-01-31 22:41:00,43.2,29.4,30.29,North,5,2.0,3.0,58,0.00,,---,0.00,VWS V14.01,2013-02-01 04:41:00,
2013-01-31 22:46:00,42.9,29.2,30.29,North,5,1.0,1.0,58,0.00,,---,0.00,VWS V14.01,2013-02-01 04:46:00,
2013-01-31 22:51:00,42.5,29.6,30.30,North,5,0.0,1.0,60,0.00,,---,0.00,VWS V14.01,2013-02-01 04:51:00,
2013-01-31 22:56:00,42.1,29.2,30.30,North,5,1.0,2.0,60,0.00,,---,0.00,VWS V14.01,2013-02-01 04:56:00,
2013-01-31 23:00:00,41.8,29.8,30.30,North,5,0.0,2.0,62,0.00,,---,0.00,VWS V14.01,2013-02-01 05:00:00,
2013-01-31 23:02:00,41.8,29.8,30.30,North,5,1.0,2.0,62,0.00,,---,0.00,VWS V14.01,2013-02-01 05:02:00,
2013-01-31 23:07:00,41.2,29.2,30.30,North,1,2.0,5.0,62,0.00,,---,0.00,VWS V14.01,2013-02-01 05:07:00,
2013-01-31 23:12:00,41.2,29.2,30.30,NW,308,1.0,2.0,62,0.00,,---,0.00,VWS V14.01,2013-02-01 05:12:00,
2013-01-31 23:17:00,41.2,28.8,30.30,NNW,330,1.0,6.0,61,0.00,,---,0.00,VWS V14.01,2013-02-01 05:17:00,
2013-01-31 23:22:00,41.2,28.8,30.30,NNW,338,2.0,5.0,61,0.00,,---,0.00,VWS V14.01,2013-02-01 05:22:00,
2013-01-31 23:27:00,41.1,28.7,30.31,NW,304,3.0,5.0,61,0.00,,---,0.00,VWS V14.01,2013-02-01 05:27:00,
2013-01-31 23:32:00,41.2,28.0,30.31,WNW,291,1.0,2.0,59,0.00,,---,0.00,VWS V14.01,2013-02-01 05:32:00,
2013-01-31 23:37:00,41.1,27.9,30.31,WNW,294,1.0,3.0,59,0.00,,---,0.00,VWS V14.01,2013-02-01 05:37:00,
2013-01-31 23:42:00,40.8,28.0,30.31,WNW,294,1.0,2.0,60,0.00,,---,0.00,VWS V14.01,2013-02-01 05:42:00,
2013-01-31 23:47:00,40.3,27.5,30.31,WNW,294,0.0,1.0,60,0.00,,---,0.00,VWS V14.01,2013-02-01 05:47:00,
2013-01-31 23:52:00,39.8,27.1,30.31,WNW,294,0.0,0.0,60,0.00,,---,0.00,VWS V14.01,2013-02-01 05:52:00,
2013-01-31 23:57:00,39.2,26.5,30.31,WNW,294,0.0,1.0,60,0.00,,---,0.00,VWS V14.01,2013-02-01 05:57:00,